SCP
0 0 0 0 0 0 0 0 0 0 0 0 0 0 0 0 0 0 0 0 0 0 0 0 0 0 0 0 0 0 0 0 0 0 0 0 0 0 0 0 0 0 0 0 0 0 0 0 0 0 0 -0 0 0
0 0 0 0 0 0 0 0 0 0 0 0 0 0 0 0 0 0 0 0 0 0 0 0 0 0 0 0 0 0 0 0 0 0 0 0 0 0 0 0 0 0 0 0 0 0 0 0 0 0 0 0 -0 -0
0 0 0 0 0 0 0 0 0 0 0 0 0 0 0 0 0 0 0 0 0 0 0 0 -0 -0 0 0 0 0 0 0 0 0 0 0 0 0 0 0 0 0 0 0 0 0 0 0 0 0 0 -0 -0 -0
0 0 0 0 0 0 0 0 0 0 0 0 0 0 0 0 0 0 0 0 0 0 0 0 0 0 -0 0 0 0 0 0 0 0 0 0 0 0 0 0 0 0 0 0 0 0 0 0 0 0 -0 -0 -0 -0
0 0 0 0 0 0 0 0 0 0 0 0 0 0 0 0 0 0 0 0 0 0 0 0 0 0 0 0 0 0 0 0 0 0 0 0 0 0 0 0 0 0 0 0 0 0 -0 -0 -0 -0 -0 -0 -0 -0
0 0 0 0 0 0 0 0 0 0 0 0 0 0 0 0 0 0 0 0 0 0 0 0 0 0 0 0 0 0 0 0 0 0 0 0 0 0 0 0 0 0 0 0 0 0 -0 -0 -0 -0 -0 -0 -0 -0
0 0 0 0 0 0 0 0 0 0 0 0 0 0 0 0 0 0 0 0 0 0 0 0 0 0 0 0 0 0 0 0 0 0 0 0 0 0 0 0 -0 0 0 0 -0 -0 -0 -0 -0 -0 -0 -0 0 0
0 0 0 0 0 0 0 0 0 0 0 0 0 -0 0 0 0 0 0 0 0 0 0 0 0 0 0 0 0 0 0 0 0 0 0 0 0 0 0 0 -0 0 0 -0 0 -0 -0 -0 -0 -0 -0 -0 -0 -0
0 0 0 0 0 0 0 0 0 0 0 0 0 0 0 0 0 0 0 0 0 0 0 0 0 0 0 0 0 0 0 0 0 0 0 0 0 0 0 -0 0 0 -0 -0 0 -0 -0 -0 -0 -0 -0 -0 -0 -0
0 0 0 0 0 0 0 0 0 0 0 0 0 0 0 0 0 0 0 0 0 0 -0 0 0 0 0 0 0 0 0 -0 -0 0 0 0 0 0 0 -0 -0 0 0 0 -0 0 0 0 0 -0 -0 -0 0 0
0 0 0 0 0 0 0 0 0 0 0 0 0 0 0 0 0 0 0 0 0 0 0 0 0 0 0 0 0 0 -0 0 -0 0 -0 0 -0 0 0 -0 -0 -0 0 0 0 0 0 0 0 0 0 0 0 0
0 0 0 0 0 0 0 0 0 0 0 0 0 0 0 0 0 0 0 0 0 0 0 0 0 0 0 0 -0 -0 -0 0 -0 0 -0 -0 0 -0 -0 -0 -0 -0 -0 -0 0 0 0 0 0 0 0 0 0 0
0 0 0 0 0 0 0 0 0 0 0 0 0 0 0 0 0 0 0 0 0 0 0 0 0 0 -0 -0 -0 -0 0 -0 -0 -0 -0 -0 -0 -0 -0 -0 0 0 -0 0 0 0 0 0 0 0 0 0 0 0
0 0 0 0 0 0 0 0 0 0 0 0 0 0 0 0 0 0 0 0 0 0 0 0 0 -0 0 -0 -0 -0 -0 -0 -0 -0 -0 -0 -0 -0 -0 -0 -0 -0 -0 0 0 0 0 0 0 0 0 0 0 0
0 0 0 0 0 0 0 0 0 0 0 0 0 0 0 0 0 0 0 0 0 0 0 0 0 0 0 -0 -0 -0 -0 -0 0 0 -0 -0 -0 -0 -0 -0 -0 -0 -0 0 0 0 0 0 0 0 0 0 0 0
0 0 0 0 0 0 0 0 0 0 0 0 0 0 0 0 0 0 0 0 0 0 0 0 0 0 0 0 0 0 0 0 0 0 -0 -0 -0 -0 -0 -0 -0 -0 -0 0 0 0 0 0 0 0 0 0 0 0
0 0 0 0 0 0 0 0 0 0 0 0 0 0 0 0 0 0 0 0 0 0 0 0 0 0 0 0 -0 0 0 0 0 0 0 -0 -0 -0 -0 -0 -0 -0 -0 0 0 0 0 0 0 0 0 0 0 0
0 0 0 0 0 0 0 0 0 0 0 0 0 0 0 0 0 0 0 0 0 0 0 0 0 0 0 0 0 0 0 0 0 0 -0 0 0 0 -0 0 -0 -0 -0 0 0 0 0 0 0 0 0 0 0 0
0 0 0 0 0 0 0 0 0 0 0 0 0 0 0 0 0 0 0 0 0 0 0 0 0 0 0 0 0 -0 0 0 0 0 -0 -0 -0 -0 -0 -0 0 -0 -0 0 0 0 0 0 0 0 0 0 0 0
0 0 0 0 0 0 0 0 0 0 0 0 0 0 0 0 0 0 0 0 0 0 0 0 0 0 0 0 0 -0 0 0 0 -0 0 -0 0 -0 -0 0 0 -0 -0 0 0 0 0 0 0 0 0 0 0 0
0 0 0 0 0 0 0 0 0 0 0 0 0 0 0 0 0 0 0 0 0 0 0 0 0 0 0 0 -0 0 0 0 0 0 0 -0 -0 -0 -0 0 0 0 -0 0 0 0 0 0 0 0 0 0 0 0
0 0 0 0 0 0 0 0 0 0 0 0 0 0 0 0 0 0 0 0 0 0 0 0 0 0 0 0 0 0 0 0 0 -0 -0 -0 -0 -0 -0 0 0 0 -0 -0 0 0 0 0 0 0 0 0 0 0
0 0 0 0 0 0 0 0 0 0 0 0 0 0 0 0 -0 0 0 0 0 0 0 0 0 0 0 0 0 0 0 0 0 -0 -0 -0 -0 -0 -0 0 -0 -0 -0 -0 0 0 0 0 0 0 0 0 0 0
0 0 0 0 0 0 0 0 0 0 0 0 0 0 0 0 -0 -0 0 0 0 0 0 0 0 0 0 0 0 0 0 0 0 0 -0 -0 -0 -0 -0 -0 0 -0 -0 -0 0 0 0 0 0 0 0 0 0 0
0 0 0 -0 -0 -0 0 -0 0 0 0 0 0 0 -0 -0 0 0 0 0 0 0 0 0 0 0 0 0 0 0 0 0 0 0 0 -0 -0 -0 -0 -0 0 0 -0 -0 -0 0 0 0 0 0 0 0 0 0
0 -0 -0 0 0 0 0 0 0 0 0 0 0 0 0 0 0 0 0 0 0 0 0 0 0 0 0 0 0 0 -0 -0 0 0 -0 -0 0 -0 -0 -0 -0 0 0 -0 -0 -0 0 0 0 0 0 0 0 0
0 0 0 0 0 0 0 0 0 0 0 0 0 0 0 0 0 0 0 0 0 0 0 0 0 0 0 0 0 0 0 0 -0 -0 0 0 -0 -0 0 -0 -0 -0 -0 -0 -0 -0 -0 0 0 0 0 0 0 0
0 0 0 0 0 0 0 0 0 0 0 0 0 0 0 0 0 0 0 0 0 0 0 0 0 0 0 0 0 0 0 0 0 0 0 0 0 -0 -0 -0 0 -0 -0 -0 0 0 -0 0 0 0 0 0 0 0
0 0 0 0 0 0 0 0 0 0 0 0 0 0 0 0 0 0 0 0 0 0 0 0 0 0 0 0 0 0 0 0 0 0 -0 0 0 0 0 0 0 -0 -0 0 0 0 -0 0 0 0 0 0 0 0
0 0 0 0 0 0 0 0 0 0 0 0 0 0 0 0 0 0 0 0 0 0 0 0 0 0 0 -0 -0 -0 0 0 0 -0 -0 -0 0 0 0 0 0 0 0 0 0 -0 0 0 0 0 0 0 0 0
0 0 0 0 0 0 0 0 0 0 0 0 0 0 0 0 0 0 0 -0 -0 -0 -0 -0 -0 -0 -0 -0 -0 -0 -0 0 -0 0 0 0 0 0 0 0 0 0 0 0 0 0 -0 -0 -0 -0 0 0 0 0
0 0 0 0 0 0 0 0 0 0 0 0 0 0 0 0 0 0 0 -0 -0 -0 0 0 -0 -0 -0 -0 -0 0 -0 -0 -0 -0 0 0 0 0 0 0 0 0 0 0 0 0 0 -0 0 0 0 0 0 0
0 0 0 0 0 0 0 0 0 0 0 0 0 0 0 0 0 0 -0 0 -0 -0 0 0 -0 0 0 -0 -0 -0 -0 -0 -0 -0 -0 -0 -0 -0 0 0 0 0 0 0 0 0 0 0 0 0 0 0 0 0
Wind_Speed_500mb
45 46 48 48 47 47 46 44 43 42 41 38 31 35 24 18 13 21 23 20 28 28 59 58 46 32 24 26 10 28 21 2 4 6 5 2 5 4 6 8 7 6 7 6 7 9 12 5 22 5 28 59 60 59
42 45 47 47 47 47 44 41 39 39 39 34 27 29 23 18 15 18 23 24 30 44 50 71 72 74 69 65 56 20 19 2 6 5 5 4 7 5 7 7 7 8 9 7 11 12 29 23 37 43 39 55 66 65
38 41 42 43 43 43 41 38 37 37 36 29 23 22 20 20 20 23 23 27 31 29 53 26 29 10 13 36 30 18 20 27 20 25 7 5 9 5 7 10 6 9 10 7 7 15 25 40 46 26 60 62 72 78
38 40 40 38 37 36 35 34 33 31 33 27 25 24 23 22 22 22 25 29 31 20 10 16 27 67 53 28 31 52 51 24 27 14 12 6 6 13 7 14 16 15 6 10 16 25 30 17 37 57 66 70 75 80
37 36 34 32 31 31 31 31 29 28 29 29 24 23 20 21 23 23 24 26 20 19 10 35 65 9 29 24 19 21 40 43 17 10 8 7 6 8 7 7 10 11 12 6 13 30 23 38 52 59 63 71 78 79
34 33 31 31 29 29 29 29 29 29 29 29 30 24 24 28 30 17 7 2 9 27 14 9 23 21 25 31 23 24 31 31 22 8 11 14 31 11 7 6 13 24 24 30 14 33 42 54 46 53 63 70 63 56
31 30 29 30 29 28 28 29 28 27 30 33 32 32 29 29 31 11 10 16 27 18 6 12 14 13 33 25 8 6 23 17 18 10 14 19 19 14 6 8 5 15 20 26 30 34 22 25 47 56 56 47 32 21
30 28 28 28 28 28 29 31 31 30 29 31 32 33 34 34 17 3 3 12 24 6 8 5 9 17 18 12 8 8 12 16 20 11 11 10 6 10 9 15 17 19 20 23 18 24 32 39 42 45 44 30 23 19
27 26 26 25 25 26 27 28 29 30 28 28 31 34 20 0 2 5 25 33 21 12 6 7 5 9 25 13 14 8 16 8 10 8 8 6 4 9 10 16 14 16 15 25 24 25 28 33 44 45 38 27 23 20
26 25 25 24 23 24 26 28 30 25 23 23 25 7 6 6 20 39 7 2 3 8 9 6 6 7 12 7 9 9 3 3 4 6 5 6 6 4 8 9 12 15 20 19 21 22 32 38 43 44 32 21 21 21
26 25 25 23 23 24 24 24 24 24 17 11 4 8 14 19 6 4 3 6 7 5 9 11 14 9 14 7 6 7 6 4 4 2 5 5 5 4 6 8 12 17 18 14 12 16 20 21 33 31 22 20 21 27
25 24 24 23 23 24 25 22 25 17 16 15 16 26 15 5 4 3 4 5 7 4 7 7 13 15 13 11 7 8 6 2 7 4 5 4 5 7 2 10 16 17 15 11 12 13 16 21 25 21 20 21 22 35
22 21 22 20 19 20 21 18 10 18 17 8 1 8 7 5 6 7 9 6 5 4 7 13 20 10 8 12 9 5 6 8 2 5 3 5 9 4 3 10 11 13 9 12 10 12 19 21 23 20 26 24 25 38
21 22 21 18 20 20 20 9 3 6 7 2 5 8 8 8 9 7 5 2 2 8 24 28 17 9 9 7 6 6 6 6 5 3 4 7 8 4 5 7 8 8 6 11 13 13 21 22 23 20 20 31 31 34
20 21 18 17 16 13 17 15 9 6 7 6 7 9 11 16 11 9 8 14 15 24 16 20 14 9 7 8 5 5 6 5 5 4 4 15 6 7 7 4 5 4 8 9 10 13 21 23 23 24 23 25 25 30
20 17 10 10 9 9 15 15 7 17 8 8 13 12 16 11 15 12 12 17 18 9 26 8 9 6 8 5 6 8 4 4 5 4 12 6 6 9 7 4 2 7 9 12 11 11 17 20 21 24 27 31 37 38
18 9 12 21 16 12 13 7 4 9 11 11 17 24 30 27 31 22 14 13 6 14 6 7 8 9 2 6 4 2 3 5 19 11 4 5 4 3 3 3 5 10 10 13 14 13 17 20 23 27 37 40 44 44
19 10 12 18 19 13 10 14 7 10 16 26 17 19 25 35 33 32 24 24 15 10 8 7 10 6 6 5 4 2 11 19 24 8 6 1 2 4 2 5 7 13 13 13 13 16 14 18 25 28 33 42 52 54
16 12 11 11 7 8 5 7 11 10 24 24 30 34 37 37 38 45 43 36 29 25 13 10 11 8 9 11 9 10 25 28 23 8 6 3 3 9 6 6 10 10 13 13 17 19 18 14 21 24 29 28 42 53
17 14 11 13 14 6 7 8 10 12 11 10 18 26 23 29 27 27 26 21 23 15 18 11 12 17 11 12 7 23 29 26 19 8 8 10 11 13 13 9 15 12 15 15 18 20 19 20 17 21 20 22 32 45
12 9 12 21 21 19 10 8 12 12 15 13 18 15 19 23 29 25 23 27 27 15 18 40 37 30 31 32 25 35 31 31 27 11 9 15 21 18 14 12 23 17 15 19 18 19 18 19 21 14 16 23 28 30
9 9 7 10 11 9 14 17 12 12 11 20 29 24 19 13 18 17 15 26 16 43 53 49 43 39 43 46 37 38 35 32 21 10 12 6 24 24 21 16 21 18 16 17 19 18 18 19 17 19 22 20 20 25
16 15 7 9 8 9 11 11 12 9 8 8 8 8 10 11 11 13 9 14 18 33 36 45 52 42 39 32 36 37 31 26 11 15 13 14 18 21 20 17 18 16 18 18 19 21 20 19 18 21 20 22 24 24
16 7 6 7 14 8 9 9 11 10 11 9 7 8 8 11 6 10 7 8 12 11 16 20 25 30 28 28 31 27 25 13 16 17 14 25 28 23 20 17 18 14 17 18 24 21 24 25 27 24 24 25 26 26
7 8 7 10 10 10 9 7 9 8 8 10 8 10 6 8 5 6 5 6 7 8 5 15 23 22 19 11 12 11 14 16 14 11 21 25 25 27 29 25 21 17 19 25 27 28 28 29 27 31 29 31 33 33
8 11 15 10 8 9 8 7 7 7 7 6 8 9 8 5 6 2 1 11 5 10 15 23 26 22 12 7 12 17 23 18 10 10 22 28 28 29 30 32 29 23 18 18 20 31 35 38 37 37 35 34 30 29
8 10 17 19 13 12 12 16 22 15 10 7 6 5 5 5 3 2 9 21 20 18 26 27 23 21 18 19 21 26 26 20 15 12 15 20 24 24 23 22 24 21 22 19 19 15 37 46 45 45 39 28 31 29
13 9 11 8 15 18 9 7 6 6 7 9 8 6 8 8 5 12 37 45 48 46 45 42 34 26 23 22 22 24 28 22 18 13 16 19 20 24 26 25 15 17 22 20 21 22 22 30 43 48 41 32 30 33
12 12 11 21 15 13 10 9 7 9 9 5 4 5 4 6 21 39 39 38 36 37 41 42 42 35 34 32 29 27 22 15 10 7 7 12 17 21 25 27 23 22 25 24 17 16 17 24 40 50 47 35 26 27
14 20 11 12 8 8 9 13 16 28 30 31 11 4 15 27 40 38 38 40 41 42 42 40 37 34 36 33 30 23 14 8 4 7 10 11 13 14 21 28 30 29 29 30 24 20 25 25 37 32 33 31 29 32
7 10 10 11 10 15 19 19 30 19 5 20 40 38 35 44 48 44 48 44 39 37 36 37 42 40 39 37 30 24 22 19 12 13 20 21 18 16 26 26 32 33 33 33 36 34 37 48 43 34 35 36 37 34
11 19 12 8 11 17 29 7 5 8 10 19 27 35 29 26 17 27 29 32 33 35 33 29 29 31 29 28 29 33 31 29 24 16 13 11 15 20 22 28 29 33 37 38 40 45 41 39 43 48 35 38 40 45
13 16 14 9 5 10 10 10 8 11 15 9 12 20 16 11 10 8 14 26 26 24 24 22 21 22 21 21 24 30 30 32 27 20 14 10 6 13 17 22 39 39 40 38 39 42 51 47 43 38 43 41 41 45
Wind_Direction_500mb
294 300 307 310 312 314 314 316 317 321 326 332 335 346 345 342 323 297 304 289 261 260 277 275 273 270 264 270 263 292 321 179 275 247 265 226 254 293 282 261 257 257 281 254 247 254 281 95 315 259 315 306 306 301
292 300 305 309 310 309 309 310 311 316 323 331 333 343 340 333 324 303 300 310 295 259 271 283 286 281 270 265 267 250 236 286 286 287 249 284 258 248 257 278 204 259 212 272 229 248 290 309 295 296 298 306 305 304
293 299 304 304 304 305 307 308 308 318 325 329 325 340 330 323 317 304 304 301 305 282 300 290 284 265 299 284 275 238 230 231 240 240 269 272 250 245 258 248 271 252 252 244 270 278 283 307 307 299 311 307 307 303
291 296 298 299 302 306 308 306 309 315 322 330 326 322 317 310 309 298 284 297 297 289 274 288 305 300 302 290 256 246 242 240 241 239 238 251 239 196 247 266 264 270 172 240 254 286 307 278 322 314 311 316 310 315
288 291 294 298 303 308 309 307 307 308 316 332 332 321 315 317 317 312 307 299 283 281 289 295 306 344 315 324 296 257 233 225 233 223 235 249 221 221 228 255 259 195 225 220 288 311 293 296 313 318 313 312 318 319
284 286 288 291 298 306 313 315 309 309 308 315 325 314 308 305 317 337 303 291 47 338 308 311 303 306 343 330 296 248 220 212 218 229 239 240 243 228 253 255 252 247 255 254 273 310 306 306 312 323 316 323 329 334
277 280 282 286 290 297 306 313 319 317 321 320 313 310 310 308 309 290 248 289 318 323 289 292 286 285 328 330 313 184 183 193 203 223 236 250 246 210 247 249 279 289 283 282 301 321 305 318 318 329 335 337 350 6
272 275 279 284 291 298 303 310 316 318 318 321 315 309 311 308 288 195 153 320 333 306 256 275 282 306 346 318 303 207 169 196 207 231 236 225 217 216 258 256 284 290 298 307 317 320 309 325 332 342 354 12 14 29
269 275 282 290 298 300 302 308 314 321 325 320 315 310 309 83 184 299 317 305 298 230 263 245 279 307 338 315 289 235 194 195 220 226 230 203 162 234 270 301 298 317 324 313 325 323 332 344 347 360 9 27 51 61
265 270 275 282 288 294 303 311 315 318 318 323 317 301 240 200 305 302 295 216 184 210 237 263 255 264 305 307 287 296 254 248 248 209 184 228 244 334 314 308 326 331 332 336 325 336 344 345 351 3 14 47 69 75
262 266 272 281 287 292 300 307 321 329 327 332 316 275 274 309 310 172 218 205 185 234 225 242 244 259 281 233 281 280 302 255 272 125 251 216 269 344 308 337 356 335 333 335 335 336 341 343 352 6 32 65 71 89
265 271 279 288 294 301 307 314 312 328 324 311 310 298 301 298 237 200 199 184 207 254 221 242 269 262 274 233 257 269 267 279 253 148 252 262 42 340 301 338 345 342 349 355 357 353 3 5 5 36 69 83 85 98
264 271 277 283 288 294 295 322 345 336 319 340 331 259 248 260 249 241 182 200 225 212 229 298 309 269 238 237 243 288 261 239 331 235 300 359 331 296 315 331 343 351 5 360 9 26 28 23 24 56 89 100 108 104
264 271 280 285 281 284 289 303 305 1 325 278 270 271 216 212 234 208 232 281 197 273 313 311 289 254 269 226 223 265 275 288 251 241 350 332 340 291 310 332 332 358 37 15 27 45 38 30 36 56 78 105 109 111
266 275 288 290 279 271 302 310 263 198 246 234 229 244 235 235 260 271 290 296 286 300 315 307 270 244 261 267 230 257 240 253 17 11 299 331 302 307 335 356 334 58 46 44 51 55 45 47 56 58 66 87 94 104
267 280 265 235 249 285 310 321 307 197 218 237 237 250 242 271 265 249 259 276 309 281 317 246 262 262 244 259 277 222 239 55 353 293 301 285 292 331 354 5 72 114 76 72 91 72 60 64 74 87 101 111 116 119
260 262 235 234 258 287 303 299 275 209 222 230 241 245 253 274 272 271 262 266 244 321 277 283 253 233 219 229 259 250 22 293 314 309 224 283 317 358 351 11 103 107 104 87 92 93 80 84 92 101 104 117 118 116
252 260 270 259 268 298 299 210 235 236 240 239 245 262 246 252 266 270 265 261 269 254 242 250 302 257 251 240 229 113 341 318 335 298 218 264 1 130 90 139 142 133 115 114 110 112 95 85 83 93 107 118 123 121
265 270 255 244 245 305 284 234 220 255 242 258 260 264 265 270 265 267 265 260 249 242 268 252 238 225 226 227 241 334 336 334 312 284 210 186 156 145 128 139 153 143 135 112 118 121 103 95 95 100 98 114 122 129
256 261 218 201 227 233 254 248 236 260 261 263 263 262 253 257 269 277 272 248 213 194 204 225 224 228 229 233 219 338 310 326 312 210 198 194 181 159 154 141 166 154 150 142 123 126 132 120 102 106 115 113 128 133
258 244 219 212 227 224 267 256 248 247 280 265 286 279 267 260 253 254 249 224 210 220 230 231 239 243 251 263 284 288 278 315 315 267 234 202 187 172 158 144 172 161 150 153 152 137 140 133 144 142 129 125 136 145
224 207 213 219 227 228 252 240 241 292 279 267 281 260 257 258 252 233 208 202 223 237 236 242 243 242 244 252 260 261 288 309 311 214 195 211 180 175 174 174 180 187 183 165 159 162 157 150 146 156 154 148 147 141
214 221 228 226 219 236 256 231 230 225 252 253 245 239 231 229 237 199 241 229 244 249 243 239 240 240 247 256 264 272 287 303 259 185 177 169 171 171 173 176 173 172 165 177 182 173 168 157 156 165 172 169 166 159
242 201 217 234 212 264 261 231 221 244 244 239 243 258 250 223 219 216 249 247 243 250 266 243 226 221 239 245 248 257 280 236 186 175 181 171 164 168 171 180 173 167 177 176 187 190 170 170 179 175 179 177 176 176
213 222 200 238 238 232 232 243 233 228 255 231 249 243 243 217 230 232 242 232 317 313 252 184 168 185 196 208 239 213 178 161 163 171 174 169 160 159 169 176 174 173 172 166 172 188 184 188 183 185 185 182 185 189
220 212 198 219 228 217 236 254 237 213 265 259 254 257 227 212 237 172 45 351 7 48 113 149 156 157 172 181 172 166 161 150 151 148 166 170 176 177 175 183 184 189 191 187 175 182 183 188 186 186 177 176 174 181
234 234 218 228 252 276 281 259 260 254 241 245 240 261 256 242 100 50 37 72 79 92 110 114 126 142 128 121 128 143 143 130 114 115 139 162 174 177 182 184 195 198 193 192 194 185 179 187 183 183 174 172 178 180
243 263 228 230 223 238 257 251 260 257 254 245 276 283 346 7 27 20 80 86 89 88 89 90 89 103 128 139 135 143 150 142 108 98 128 154 170 183 190 202 208 202 196 204 204 201 190 193 195 186 175 175 179 183
237 237 242 264 259 246 242 234 233 245 263 311 309 284 337 347 90 105 88 81 75 78 81 82 82 89 94 102 114 125 136 143 145 165 199 183 188 199 194 190 190 190 194 206 204 203 220 202 191 191 189 176 177 179
244 219 226 253 242 248 248 242 254 296 295 294 272 348 63 82 94 94 87 74 67 74 79 82 87 90 89 92 93 101 114 131 200 245 246 239 224 206 205 208 203 198 196 202 201 186 184 156 149 166 183 196 195 198
250 197 233 234 255 264 273 294 303 312 355 64 103 95 92 91 83 74 69 68 72 73 74 75 75 74 75 75 72 67 56 35 4 306 279 272 262 237 211 200 204 202 199 198 196 193 190 199 202 198 202 207 198 206
215 211 223 247 282 300 310 329 38 100 81 97 94 98 100 89 81 65 75 70 68 66 67 67 66 62 57 52 42 35 30 27 20 13 345 284 251 211 199 195 185 198 201 203 202 196 201 206 206 207 199 215 210 204
226 239 244 266 311 323 347 30 47 87 64 53 54 75 70 67 80 97 77 65 58 57 58 56 57 53 50 40 24 15 18 19 22 26 14 20 170 177 191 200 200 196 201 203 203 204 205 207 213 216 208 204 205 202
Wind_Speed_850mb
45 46 48 48 47 47 46 44 43 42 41 38 31 35 24 18 13 21 23 20 28 28 59 58 46 32 24 26 10 28 21 2 4 6 5 2 5 4 6 8 7 6 7 6 7 9 12 5 22 5 28 59 60 59
42 45 47 47 47 47 44 41 39 39 39 34 27 29 23 18 15 18 23 24 30 44 50 71 72 74 69 65 56 20 19 2 6 5 5 4 7 5 7 7 7 8 9 7 11 12 29 23 37 43 39 55 66 65
38 41 42 43 43 43 41 38 37 37 36 29 23 22 20 20 20 23 23 27 31 29 53 26 29 10 13 36 30 18 20 27 20 25 7 5 9 5 7 10 6 9 10 7 7 15 25 40 46 26 60 62 72 78
38 40 40 38 37 36 35 34 33 31 33 27 25 24 23 22 22 22 25 29 31 20 10 16 27 67 53 28 31 52 51 24 27 14 12 6 6 13 7 14 16 15 6 10 16 25 30 17 37 57 66 70 75 80
37 36 34 32 31 31 31 31 29 28 29 29 24 23 20 21 23 23 24 26 20 19 10 35 65 9 29 24 19 21 40 43 17 10 8 7 6 8 7 7 10 11 12 6 13 30 23 38 52 59 63 71 78 79
34 33 31 31 29 29 29 29 29 29 29 29 30 24 24 28 30 17 7 2 9 27 14 9 23 21 25 31 23 24 31 31 22 8 11 14 31 11 7 6 13 24 24 30 14 33 42 54 46 53 63 70 63 56
31 30 29 30 29 28 28 29 28 27 30 33 32 32 29 29 31 11 10 16 27 18 6 12 14 13 33 25 8 6 23 17 18 10 14 19 19 14 6 8 5 15 20 26 30 34 22 25 47 56 56 47 32 21
30 28 28 28 28 28 29 31 31 30 29 31 32 33 34 34 17 3 3 12 24 6 8 5 9 17 18 12 8 8 12 16 20 11 11 10 6 10 9 15 17 19 20 23 18 24 32 39 42 45 44 30 23 19
27 26 26 25 25 26 27 28 29 30 28 28 31 34 20 0 2 5 25 33 21 12 6 7 5 9 25 13 14 8 16 8 10 8 8 6 4 9 10 16 14 16 15 25 24 25 28 33 44 45 38 27 23 20
26 25 25 24 23 24 26 28 30 25 23 23 25 7 6 6 20 39 7 2 3 8 9 6 6 7 12 7 9 9 3 3 4 6 5 6 6 4 8 9 12 15 20 19 21 22 32 38 43 44 32 21 21 21
26 25 25 23 23 24 24 24 24 24 17 11 4 8 14 19 6 4 3 6 7 5 9 11 14 9 14 7 6 7 6 4 4 2 5 5 5 4 6 8 12 17 18 14 12 16 20 21 33 31 22 20 21 27
25 24 24 23 23 24 25 22 25 17 16 15 16 26 15 5 4 3 4 5 7 4 7 7 13 15 13 11 7 8 6 2 7 4 5 4 5 7 2 10 16 17 15 11 12 13 16 21 25 21 20 21 22 35
22 21 22 20 19 20 21 18 10 18 17 8 1 8 7 5 6 7 9 6 5 4 7 13 20 10 8 12 9 5 6 8 2 5 3 5 9 4 3 10 11 13 9 12 10 12 19 21 23 20 26 24 25 38
21 22 21 18 20 20 20 9 3 6 7 2 5 8 8 8 9 7 5 2 2 8 24 28 17 9 9 7 6 6 6 6 5 3 4 7 8 4 5 7 8 8 6 11 13 13 21 22 23 20 20 31 31 34
20 21 18 17 16 13 17 15 9 6 7 6 7 9 11 16 11 9 8 14 15 24 16 20 14 9 7 8 5 5 6 5 5 4 4 15 6 7 7 4 5 4 8 9 10 13 21 23 23 24 23 25 25 30
20 17 10 10 9 9 15 15 7 17 8 8 13 12 16 11 15 12 12 17 18 9 26 8 9 6 8 5 6 8 4 4 5 4 12 6 6 9 7 4 2 7 9 12 11 11 17 20 21 24 27 31 37 38
18 9 12 21 16 12 13 7 4 9 11 11 17 24 30 27 31 22 14 13 6 14 6 7 8 9 2 6 4 2 3 5 19 11 4 5 4 3 3 3 5 10 10 13 14 13 17 20 23 27 37 40 44 44
19 10 12 18 19 13 10 14 7 10 16 26 17 19 25 35 33 32 24 24 15 10 8 7 10 6 6 5 4 2 11 19 24 8 6 1 2 4 2 5 7 13 13 13 13 16 14 18 25 28 33 42 52 54
16 12 11 11 7 8 5 7 11 10 24 24 30 34 37 37 38 45 43 36 29 25 13 10 11 8 9 11 9 10 25 28 23 8 6 3 3 9 6 6 10 10 13 13 17 19 18 14 21 24 29 28 42 53
17 14 11 13 14 6 7 8 10 12 11 10 18 26 23 29 27 27 26 21 23 15 18 11 12 17 11 12 7 23 29 26 19 8 8 10 11 13 13 9 15 12 15 15 18 20 19 20 17 21 20 22 32 45
12 9 12 21 21 19 10 8 12 12 15 13 18 15 19 23 29 25 23 27 27 15 18 40 37 30 31 32 25 35 31 31 27 11 9 15 21 18 14 12 23 17 15 19 18 19 18 19 21 14 16 23 28 30
9 9 7 10 11 9 14 17 12 12 11 20 29 24 19 13 18 17 15 26 16 43 53 49 43 39 43 46 37 38 35 32 21 10 12 6 24 24 21 16 21 18 16 17 19 18 18 19 17 19 22 20 20 25
16 15 7 9 8 9 11 11 12 9 8 8 8 8 10 11 11 13 9 14 18 33 36 45 52 42 39 32 36 37 31 26 11 15 13 14 18 21 20 17 18 16 18 18 19 21 20 19 18 21 20 22 24 24
16 7 6 7 14 8 9 9 11 10 11 9 7 8 8 11 6 10 7 8 12 11 16 20 25 30 28 28 31 27 25 13 16 17 14 25 28 23 20 17 18 14 17 18 24 21 24 25 27 24 24 25 26 26
7 8 7 10 10 10 9 7 9 8 8 10 8 10 6 8 5 6 5 6 7 8 5 15 23 22 19 11 12 11 14 16 14 11 21 25 25 27 29 25 21 17 19 25 27 28 28 29 27 31 29 31 33 33
8 11 15 10 8 9 8 7 7 7 7 6 8 9 8 5 6 2 1 11 5 10 15 23 26 22 12 7 12 17 23 18 10 10 22 28 28 29 30 32 29 23 18 18 20 31 35 38 37 37 35 34 30 29
8 10 17 19 13 12 12 16 22 15 10 7 6 5 5 5 3 2 9 21 20 18 26 27 23 21 18 19 21 26 26 20 15 12 15 20 24 24 23 22 24 21 22 19 19 15 37 46 45 45 39 28 31 29
13 9 11 8 15 18 9 7 6 6 7 9 8 6 8 8 5 12 37 45 48 46 45 42 34 26 23 22 22 24 28 22 18 13 16 19 20 24 26 25 15 17 22 20 21 22 22 30 43 48 41 32 30 33
12 12 11 21 15 13 10 9 7 9 9 5 4 5 4 6 21 39 39 38 36 37 41 42 42 35 34 32 29 27 22 15 10 7 7 12 17 21 25 27 23 22 25 24 17 16 17 24 40 50 47 35 26 27
14 20 11 12 8 8 9 13 16 28 30 31 11 4 15 27 40 38 38 40 41 42 42 40 37 34 36 33 30 23 14 8 4 7 10 11 13 14 21 28 30 29 29 30 24 20 25 25 37 32 33 31 29 32
7 10 10 11 10 15 19 19 30 19 5 20 40 38 35 44 48 44 48 44 39 37 36 37 42 40 39 37 30 24 22 19 12 13 20 21 18 16 26 26 32 33 33 33 36 34 37 48 43 34 35 36 37 34
11 19 12 8 11 17 29 7 5 8 10 19 27 35 29 26 17 27 29 32 33 35 33 29 29 31 29 28 29 33 31 29 24 16 13 11 15 20 22 28 29 33 37 38 40 45 41 39 43 48 35 38 40 45
13 16 14 9 5 10 10 10 8 11 15 9 12 20 16 11 10 8 14 26 26 24 24 22 21 22 21 21 24 30 30 32 27 20 14 10 6 13 17 22 39 39 40 38 39 42 51 47 43 38 43 41 41 45
Wind_Direction_850mb
294 300 307 310 312 314 314 316 317 321 326 332 335 346 345 342 323 297 304 289 261 260 277 275 273 270 264 270 263 292 321 179 275 247 265 226 254 293 282 261 257 257 281 254 247 254 281 95 315 259 315 306 306 301
292 300 305 309 310 309 309 310 311 316 323 331 333 343 340 333 324 303 300 310 295 259 271 283 286 281 270 265 267 250 236 286 286 287 249 284 258 248 257 278 204 259 212 272 229 248 290 309 295 296 298 306 305 304
293 299 304 304 304 305 307 308 308 318 325 329 325 340 330 323 317 304 304 301 305 282 300 290 284 265 299 284 275 238 230 231 240 240 269 272 250 245 258 248 271 252 252 244 270 278 283 307 307 299 311 307 307 303
291 296 298 299 302 306 308 306 309 315 322 330 326 322 317 310 309 298 284 297 297 289 274 288 305 300 302 290 256 246 242 240 241 239 238 251 239 196 247 266 264 270 172 240 254 286 307 278 322 314 311 316 310 315
288 291 294 298 303 308 309 307 307 308 316 332 332 321 315 317 317 312 307 299 283 281 289 295 306 344 315 324 296 257 233 225 233 223 235 249 221 221 228 255 259 195 225 220 288 311 293 296 313 318 313 312 318 319
284 286 288 291 298 306 313 315 309 309 308 315 325 314 308 305 317 337 303 291 47 338 308 311 303 306 343 330 296 248 220 212 218 229 239 240 243 228 253 255 252 247 255 254 273 310 306 306 312 323 316 323 329 334
277 280 282 286 290 297 306 313 319 317 321 320 313 310 310 308 309 290 248 289 318 323 289 292 286 285 328 330 313 184 183 193 203 223 236 250 246 210 247 249 279 289 283 282 301 321 305 318 318 329 335 337 350 6
272 275 279 284 291 298 303 310 316 318 318 321 315 309 311 308 288 195 153 320 333 306 256 275 282 306 346 318 303 207 169 196 207 231 236 225 217 216 258 256 284 290 298 307 317 320 309 325 332 342 354 12 14 29
269 275 282 290 298 300 302 308 314 321 325 320 315 310 309 83 184 299 317 305 298 230 263 245 279 307 338 315 289 235 194 195 220 226 230 203 162 234 270 301 298 317 324 313 325 323 332 344 347 360 9 27 51 61
265 270 275 282 288 294 303 311 315 318 318 323 317 301 240 200 305 302 295 216 184 210 237 263 255 264 305 307 287 296 254 248 248 209 184 228 244 334 314 308 326 331 332 336 325 336 344 345 351 3 14 47 69 75
262 266 272 281 287 292 300 307 321 329 327 332 316 275 274 309 310 172 218 205 185 234 225 242 244 259 281 233 281 280 302 255 272 125 251 216 269 344 308 337 356 335 333 335 335 336 341 343 352 6 32 65 71 89
265 271 279 288 294 301 307 314 312 328 324 311 310 298 301 298 237 200 199 184 207 254 221 242 269 262 274 233 257 269 267 279 253 148 252 262 42 340 301 338 345 342 349 355 357 353 3 5 5 36 69 83 85 98
264 271 277 283 288 294 295 322 345 336 319 340 331 259 248 260 249 241 182 200 225 212 229 298 309 269 238 237 243 288 261 239 331 235 300 359 331 296 315 331 343 351 5 360 9 26 28 23 24 56 89 100 108 104
264 271 280 285 281 284 289 303 305 1 325 278 270 271 216 212 234 208 232 281 197 273 313 311 289 254 269 226 223 265 275 288 251 241 350 332 340 291 310 332 332 358 37 15 27 45 38 30 36 56 78 105 109 111
266 275 288 290 279 271 302 310 263 198 246 234 229 244 235 235 260 271 290 296 286 300 315 307 270 244 261 267 230 257 240 253 17 11 299 331 302 307 335 356 334 58 46 44 51 55 45 47 56 58 66 87 94 104
267 280 265 235 249 285 310 321 307 197 218 237 237 250 242 271 265 249 259 276 309 281 317 246 262 262 244 259 277 222 239 55 353 293 301 285 292 331 354 5 72 114 76 72 91 72 60 64 74 87 101 111 116 119
260 262 235 234 258 287 303 299 275 209 222 230 241 245 253 274 272 271 262 266 244 321 277 283 253 233 219 229 259 250 22 293 314 309 224 283 317 358 351 11 103 107 104 87 92 93 80 84 92 101 104 117 118 116
252 260 270 259 268 298 299 210 235 236 240 239 245 262 246 252 266 270 265 261 269 254 242 250 302 257 251 240 229 113 341 318 335 298 218 264 1 130 90 139 142 133 115 114 110 112 95 85 83 93 107 118 123 121
265 270 255 244 245 305 284 234 220 255 242 258 260 264 265 270 265 267 265 260 249 242 268 252 238 225 226 227 241 334 336 334 312 284 210 186 156 145 128 139 153 143 135 112 118 121 103 95 95 100 98 114 122 129
256 261 218 201 227 233 254 248 236 260 261 263 263 262 253 257 269 277 272 248 213 194 204 225 224 228 229 233 219 338 310 326 312 210 198 194 181 159 154 141 166 154 150 142 123 126 132 120 102 106 115 113 128 133
258 244 219 212 227 224 267 256 248 247 280 265 286 279 267 260 253 254 249 224 210 220 230 231 239 243 251 263 284 288 278 315 315 267 234 202 187 172 158 144 172 161 150 153 152 137 140 133 144 142 129 125 136 145
224 207 213 219 227 228 252 240 241 292 279 267 281 260 257 258 252 233 208 202 223 237 236 242 243 242 244 252 260 261 288 309 311 214 195 211 180 175 174 174 180 187 183 165 159 162 157 150 146 156 154 148 147 141
214 221 228 226 219 236 256 231 230 225 252 253 245 239 231 229 237 199 241 229 244 249 243 239 240 240 247 256 264 272 287 303 259 185 177 169 171 171 173 176 173 172 165 177 182 173 168 157 156 165 172 169 166 159
242 201 217 234 212 264 261 231 221 244 244 239 243 258 250 223 219 216 249 247 243 250 266 243 226 221 239 245 248 257 280 236 186 175 181 171 164 168 171 180 173 167 177 176 187 190 170 170 179 175 179 177 176 176
213 222 200 238 238 232 232 243 233 228 255 231 249 243 243 217 230 232 242 232 317 313 252 184 168 185 196 208 239 213 178 161 163 171 174 169 160 159 169 176 174 173 172 166 172 188 184 188 183 185 185 182 185 189
220 212 198 219 228 217 236 254 237 213 265 259 254 257 227 212 237 172 45 351 7 48 113 149 156 157 172 181 172 166 161 150 151 148 166 170 176 177 175 183 184 189 191 187 175 182 183 188 186 186 177 176 174 181
234 234 218 228 252 276 281 259 260 254 241 245 240 261 256 242 100 50 37 72 79 92 110 114 126 142 128 121 128 143 143 130 114 115 139 162 174 177 182 184 195 198 193 192 194 185 179 187 183 183 174 172 178 180
243 263 228 230 223 238 257 251 260 257 254 245 276 283 346 7 27 20 80 86 89 88 89 90 89 103 128 139 135 143 150 142 108 98 128 154 170 183 190 202 208 202 196 204 204 201 190 193 195 186 175 175 179 183
237 237 242 264 259 246 242 234 233 245 263 311 309 284 337 347 90 105 88 81 75 78 81 82 82 89 94 102 114 125 136 143 145 165 199 183 188 199 194 190 190 190 194 206 204 203 220 202 191 191 189 176 177 179
244 219 226 253 242 248 248 242 254 296 295 294 272 348 63 82 94 94 87 74 67 74 79 82 87 90 89 92 93 101 114 131 200 245 246 239 224 206 205 208 203 198 196 202 201 186 184 156 149 166 183 196 195 198
250 197 233 234 255 264 273 294 303 312 355 64 103 95 92 91 83 74 69 68 72 73 74 75 75 74 75 75 72 67 56 35 4 306 279 272 262 237 211 200 204 202 199 198 196 193 190 199 202 198 202 207 198 206
215 211 223 247 282 300 310 329 38 100 81 97 94 98 100 89 81 65 75 70 68 66 67 67 66 62 57 52 42 35 30 27 20 13 345 284 251 211 199 195 185 198 201 203 202 196 201 206 206 207 199 215 210 204
226 239 244 266 311 323 347 30 47 87 64 53 54 75 70 67 80 97 77 65 58 57 58 56 57 53 50 40 24 15 18 19 22 26 14 20 170 177 191 200 200 196 201 203 203 204 205 207 213 216 208 204 205 202